[[{"header":{"parameterUnit":"m.s-1","parameterCategory":2,"la1":30.2992,"la2":30.254,"lo1":-89.0895,"lo2":-89.0443,"dy":0.0025,"dx":0.0025,"nx":19,"ny":19,"refTime":"2026-05-22T09:00:00:Z","depth":"0","parameterNumber":2,"parameterNumberName":"U-component_of_CURRENTS"},"data":[0,0,0,0.3129,0.3129,0.3112,0.3112,0.3043,0.3042,0,0,0,0,0,0,0,0,0,0,0,0.3126,0.3127,0.3129,0.3129,0.3112,0.3112,0.3043,0.3042,0,0,0,0,0,0,0,0,0,0,0,0.3126,0.3126,0.3127,0.3129,0.3112,0.3112,0.3043,0.3061,0,0,0,0,0,0,0,0,0,0,0.3081,0.3085,0.3126,0.3127,0.3129,0.3112,0.3112,0.3063,0.306,0.3044,0,0.3055,0,0.3061,0.3039,0.3039,0,0,0,0.3104,0.3087,0.3099,0.3127,0.3129,0.3113,0.3113,0.3062,0.3059,0.3041,0.3054,0.3052,0.306,0.3038,0.3038,0.3078,0.3078,0,0,0.3105,0.3102,0.3101,0.3098,0.3141,0.3114,0.3113,0.306,0.3054,0.3054,0.3051,0.3059,0.3038,0.3038,0.3077,0.3078,0,0,0,0.3125,0.3103,0.3116,0.31,0.3109,0.3114,0.3113,0.3055,0.3065,0.305,0.3058,0.3038,0.3037,0.3076,0.3077,0.3166,0,0,0,0.3124,0.3117,0.3117,0.3111,0.3111,0.3087,0.3109,0.3068,0.3063,0.3058,0.3038,0.3037,0.3075,0.3077,0.3162,0.3195,0,0,0,0.3124,0.3116,0.3123,0.3112,0.3119,0.3089,0.3093,0.3067,0.3069,0.3039,0.3037,0.3074,0.3076,0.3158,0.3189,0.3314,0,0,0,0.3108,0.3118,0.3123,0.314,0.3119,0.3117,0.3093,0.3075,0.3051,0.3038,0.3075,0.3077,0.3157,0.3185,0.3309,0.3268,0.3289,0,0,0.3112,0.3118,0.3132,0.3137,0.314,0.3117,0.3135,0.3096,0.3081,0.3082,0.3083,0.3163,0.3188,0.3313,0.338,0.3398,0,0,0,0.3128,0.3126,0.3132,0.3138,0.3143,0.3162,0.3125,0.3144,0.3174,0.3083,0.3178,0.3191,0.3268,0.3231,0.3246,0.3064,0.3086,0.3086,0.3086,0.3088,0.3112,0.3116,0.3141,0.3156,0.3181,0.3224,0.3248,0.3206,0.3261,0.3275,0.3442,0.3404,0.3415,0.3227,0.329,0.329,0.3291,0.3291,0.3067,0.3064,0.3106,0.3118,0.3169,0.3194,0.3305,0.3333,0.3459,0.3383,0.3454,0.3339,0.3436,0.323,0.3297,0.3296,0.3295,0.3295,0.3294,0.3015,0.3017,0.3041,0.3081,0.3141,0.3218,0.3358,0.3446,0.3534,0.3616,0.3604,0.36,0.3413,0.3664,0.3665,0.3666,0.3666,0.3667,0.3667,0.2947,0.2971,0.2986,0.3048,0.3091,0.3201,0.3399,0.3524,0.3672,0.3705,0.3705,0.3443,0.3557,0.3535,0.3678,0.3676,0.3675,0.3674,0.3673,0.2869,0.2902,0.2925,0.2962,0.3076,0.3158,0.3369,0.3602,0.3766,0.3834,0.359,0.3771,0.3748,0.3734,0.3716,0.3899,0.3899,0.3899,0.3899,0.2813,0.2836,0.2869,0.293,0.3028,0.3138,0.3264,0.345,0.3581,0.3566,0.358,0.3433,0.3432,0.3382,0.3375,0.3346,0.3431,0.343,0.3429,0.2765,0.2795,0.2807,0.2891,0.2998,0.3096,0.3113,0.3077,0.3245,0.3391,0.3342,0.3362,0.3122,0.3135,0.3031,0.3036,0.2979,0,0]},{"header":{"parameterUnit":"m.s-1","parameterCategory":2,"la1":30.2992,"la2":30.254,"lo1":-89.0895,"lo2":-89.0443,"dy":0.0025,"dx":0.0025,"nx":19,"ny":19,"refTime":"2026-05-22T09:00:00:Z","depth":"0","parameterNumber":3,"parameterNumberName":"V-component_of_CURRENTS"},"data":[0,0,0,0.0369,0.0369,0.0347,0.0347,0.0251,0.025,0,0,0,0,0,0,0,0,0,0,0,0.0378,0.0378,0.0369,0.0369,0.0347,0.0347,0.0251,0.025,0,0,0,0,0,0,0,0,0,0,0,0.0378,0.0378,0.0378,0.0369,0.0347,0.0347,0.0251,0.0284,0,0,0,0,0,0,0,0,0,0,0.0313,0.0339,0.0378,0.0378,0.0369,0.0347,0.0347,0.0286,0.0282,0.0243,0,0.0244,0,0.0243,0.0242,0.0242,0,0,0,0.0365,0.0343,0.033,0.0378,0.0368,0.0347,0.0356,0.0284,0.0279,0.0237,0.0243,0.024,0.0242,0.0242,0.0241,0.0243,0.0243,0,0,0.0366,0.0376,0.0334,0.0327,0.0366,0.0356,0.0355,0.0282,0.028,0.0242,0.0237,0.024,0.0241,0.024,0.0242,0.0243,0,0,0,0.0372,0.0377,0.0368,0.0331,0.0332,0.0356,0.0354,0.0284,0.0279,0.0237,0.0239,0.024,0.0239,0.0241,0.0242,0.0373,0,0,0,0.0373,0.038,0.0369,0.0374,0.0334,0.0318,0.0358,0.0284,0.0276,0.024,0.024,0.0238,0.024,0.0241,0.0368,0.0467,0,0,0,0.0378,0.0381,0.0379,0.0375,0.0366,0.032,0.0312,0.0283,0.0277,0.0242,0.0237,0.0239,0.0241,0.0363,0.0456,0.058,0,0,0,0.0388,0.0416,0.0379,0.0417,0.0367,0.0385,0.0312,0.0309,0.0288,0.024,0.024,0.0242,0.0361,0.045,0.0573,0.0678,0.072,0,0,0.0436,0.0422,0.0448,0.0415,0.0456,0.0387,0.0431,0.0363,0.0306,0.0255,0.0256,0.037,0.0456,0.0578,0.0797,0.0836,0,0,0,0.0473,0.0491,0.0499,0.051,0.0497,0.0513,0.0437,0.0424,0.0409,0.0303,0.0375,0.0426,0.0499,0.0547,0.0578,0.0411,0.0252,0.0251,0.0251,0.055,0.055,0.0598,0.0598,0.061,0.0586,0.0611,0.0578,0.0478,0.051,0.0535,0.0727,0.0778,0.0802,0.0628,0.0515,0.0515,0.0516,0.0516,0.0641,0.0673,0.0678,0.0725,0.0728,0.0756,0.0768,0.0736,0.0795,0.0677,0.074,0.0686,0.0844,0.0645,0.0525,0.0523,0.0522,0.0521,0.0521,0.0689,0.0706,0.0731,0.0801,0.0872,0.0883,0.1025,0.0992,0.0954,0.1014,0.1059,0.1057,0.0885,0.1038,0.1039,0.104,0.1041,0.1041,0.1042,0.0726,0.0751,0.0817,0.0895,0.0959,0.1079,0.119,0.1273,0.1319,0.1255,0.1255,0.0945,0.0887,0.0867,0.1057,0.1055,0.1053,0.1051,0.105,0.0785,0.0798,0.0897,0.0965,0.1147,0.1361,0.1453,0.1665,0.1702,0.1751,0.1326,0.1379,0.1361,0.1335,0.1327,0.1625,0.1625,0.1625,0.1625,0.082,0.0837,0.0972,0.1103,0.1297,0.1492,0.1868,0.2005,0.1807,0.163,0.1465,0.1315,0.1299,0.1265,0.124,0.1224,0.1489,0.1488,0.1488,0.0863,0.0899,0.1002,0.1139,0.1363,0.1679,0.2081,0.2243,0.1804,0.1456,0.1217,0.1223,0.0965,0.0954,0.0858,0.0837,0.0794,0,0]}],[{"header":{"parameterUnit":"m.s-1","parameterCategory":2,"la1":30.2992,"la2":30.254,"lo1":-89.0895,"lo2":-89.0443,"dy":0.0025,"dx":0.0025,"nx":19,"ny":19,"refTime":"2026-05-22T09:00:00:Z","depth":"2","parameterNumber":2,"parameterNumberName":"U-component_of_CURRENTS"},"data":[0,0,0,0.2499,0.25,0.2539,0.2539,0.2578,0.2578,0,0,0,0,0,0,0,0,0,0,0,0.249,0.249,0.2499,0.25,0.2539,0.2539,0.2578,0.2578,0,0,0,0,0,0,0,0,0,0,0,0.249,0.249,0.2491,0.25,0.2539,0.2539,0.2578,0.2552,0,0,0,0,0,0,0,0,0,0,0.2515,0.2508,0.249,0.2491,0.25,0.2539,0.2539,0.255,0.2553,0.2556,0,0.2567,0,0.257,0.258,0.2581,0,0,0,0.2502,0.2506,0.2515,0.2491,0.25,0.2539,0.2522,0.2552,0.2555,0.256,0.2567,0.2569,0.2571,0.2581,0.2581,0.2694,0.2695,0,0,0.25,0.2498,0.2513,0.2517,0.2516,0.252,0.2523,0.2554,0.256,0.2567,0.2569,0.2572,0.2581,0.2581,0.2693,0.2694,0,0,0,0.2492,0.2496,0.2505,0.2516,0.2522,0.2522,0.2524,0.2559,0.2562,0.257,0.2572,0.2581,0.2581,0.2692,0.2693,0.2758,0,0,0,0.2491,0.2491,0.2504,0.2503,0.2522,0.2542,0.2528,0.256,0.2563,0.2572,0.2581,0.2582,0.269,0.2692,0.2753,0.2771,0,0,0,0.2487,0.2491,0.2497,0.2503,0.2518,0.2542,0.2547,0.2561,0.2564,0.2581,0.2582,0.269,0.2692,0.275,0.2765,0.2874,0,0,0,0.2482,0.2492,0.2497,0.2514,0.2518,0.2556,0.2547,0.2579,0.2597,0.2581,0.2691,0.2693,0.2749,0.2762,0.2869,0.2767,0.278,0,0,0.2489,0.2493,0.2503,0.2508,0.2534,0.2551,0.261,0.2629,0.2637,0.2677,0.268,0.2755,0.2765,0.2873,0.2903,0.2912,0,0,0,0.2502,0.2502,0.2516,0.253,0.2562,0.2615,0.2636,0.268,0.275,0.2658,0.2785,0.279,0.2856,0.2785,0.2793,0.2704,0.2704,0.2704,0.2703,0.2484,0.25,0.2517,0.2546,0.2589,0.2663,0.2734,0.28,0.2791,0.2856,0.2865,0.3019,0.2944,0.2949,0.2897,0.2897,0.2897,0.2897,0.2898,0.2474,0.2473,0.2519,0.2546,0.2616,0.2685,0.2825,0.2869,0.3016,0.2967,0.3029,0.2883,0.2961,0.2903,0.2902,0.2901,0.2901,0.29,0.29,0.2431,0.2436,0.2466,0.2525,0.2608,0.2714,0.2862,0.2981,0.3069,0.3142,0.3102,0.3099,0.3058,0.3195,0.3195,0.3196,0.3196,0.3197,0.3197,0.2376,0.2406,0.242,0.2503,0.2558,0.2691,0.2905,0.3026,0.3154,0.3171,0.317,0.312,0.311,0.3078,0.3206,0.3204,0.3203,0.3202,0.3202,0.2308,0.2332,0.2369,0.2408,0.2551,0.2599,0.2825,0.3017,0.3175,0.3202,0.3202,0.3199,0.3176,0.3167,0.3137,0.3274,0.3274,0.3274,0.3274,0.2255,0.2269,0.232,0.2393,0.2488,0.2573,0.2596,0.2691,0.2908,0.295,0.2963,0.2832,0.2837,0.2787,0.2786,0.2745,0.278,0.2778,0.2777,0.2211,0.225,0.2272,0.2377,0.2462,0.251,0.2382,0.2256,0.2442,0.2751,0.2805,0.3255,0.3092,0.3088,0.3032,0.3023,0.2965,0,0]},{"header":{"parameterUnit":"m.s-1","parameterCategory":2,"la1":30.2992,"la2":30.254,"lo1":-89.0895,"lo2":-89.0443,"dy":0.0025,"dx":0.0025,"nx":19,"ny":19,"refTime":"2026-05-22T09:00:00:Z","depth":"2","parameterNumber":3,"parameterNumberName":"V-component_of_CURRENTS"},"data":[0,0,0,0.0201,0.0201,0.0184,0.0184,0.0102,0.0101,0,0,0,0,0,0,0,0,0,0,0,0.0205,0.0205,0.0201,0.0201,0.0184,0.0184,0.0102,0.0101,0,0,0,0,0,0,0,0,0,0,0,0.0205,0.0205,0.0205,0.0201,0.0184,0.0184,0.0102,0.0128,0,0,0,0,0,0,0,0,0,0,0.0152,0.0171,0.0205,0.0205,0.0201,0.0184,0.0184,0.013,0.0127,0.0095,0,0.0097,0,0.0099,0.0095,0.0095,0,0,0,0.0194,0.0174,0.0166,0.0205,0.0201,0.0184,0.019,0.0129,0.0125,0.009,0.0095,0.0093,0.0097,0.0094,0.0094,0.0088,0.0089,0,0,0.0195,0.0202,0.0169,0.0164,0.02,0.019,0.0189,0.0127,0.0125,0.0095,0.0091,0.0096,0.0094,0.0093,0.0088,0.0088,0,0,0,0.0202,0.0202,0.0197,0.0167,0.017,0.019,0.0189,0.0128,0.0125,0.009,0.0095,0.0093,0.0092,0.0087,0.0088,0.0184,0,0,0,0.0203,0.0207,0.0198,0.0201,0.0171,0.0158,0.0191,0.013,0.0123,0.0095,0.0093,0.0091,0.0086,0.0087,0.018,0.0253,0,0,0,0.0205,0.0207,0.0206,0.0202,0.0197,0.0159,0.0154,0.0128,0.0125,0.0095,0.0091,0.0086,0.0087,0.0176,0.0245,0.0321,0,0,0,0.021,0.0229,0.0206,0.0231,0.0198,0.0211,0.0154,0.015,0.0131,0.0093,0.0086,0.0088,0.0175,0.0241,0.0316,0.0383,0.0411,0,0,0.024,0.0232,0.0249,0.023,0.0257,0.0212,0.0243,0.0188,0.0142,0.0099,0.0099,0.0181,0.0245,0.032,0.047,0.0496,0,0,0,0.0264,0.0278,0.0283,0.0292,0.0284,0.0298,0.0244,0.0233,0.0214,0.0139,0.0185,0.0223,0.0267,0.0297,0.0317,0.0095,0.0095,0.0095,0.0094,0.0314,0.0316,0.0352,0.0355,0.0365,0.0349,0.0366,0.034,0.0266,0.0286,0.0302,0.0432,0.0464,0.048,0.0287,0.0287,0.0287,0.0288,0.0288,0.0379,0.0406,0.0414,0.0451,0.0454,0.0479,0.0482,0.0455,0.0488,0.0405,0.0442,0.0399,0.0509,0.0296,0.0294,0.0293,0.0292,0.0292,0.0291,0.0416,0.0431,0.0453,0.0514,0.057,0.058,0.0696,0.0659,0.0604,0.064,0.0657,0.0656,0.0506,0.0649,0.065,0.065,0.0651,0.0651,0.0652,0.0444,0.0467,0.0522,0.0589,0.0647,0.0754,0.0832,0.0885,0.0873,0.0799,0.0798,0.0554,0.0542,0.0528,0.0662,0.066,0.0659,0.0658,0.0657,0.049,0.05,0.0592,0.0651,0.0814,0.1015,0.1067,0.1193,0.1183,0.1181,0.0884,0.0875,0.0858,0.084,0.0833,0.1039,0.1039,0.1039,0.1039,0.052,0.0531,0.066,0.0775,0.096,0.1134,0.1413,0.1406,0.1262,0.1108,0.1105,0.1019,0.1003,0.0987,0.0966,0.0957,0.1196,0.1196,0.1196,0.0559,0.0595,0.0695,0.0816,0.1024,0.1322,0.1594,0.1552,0.1267,0.1196,0.107,0.1062,0.0921,0.0902,0.0858,0.0832,0.081,0,0]}],[{"header":{"parameterUnit":"m.s-1","parameterCategory":2,"la1":30.2992,"la2":30.254,"lo1":-89.0895,"lo2":-89.0443,"dy":0.0025,"dx":0.0025,"nx":19,"ny":19,"refTime":"2026-05-22T09:00:00:Z","depth":"4","parameterNumber":2,"parameterNumberName":"U-component_of_CURRENTS"},"data":[0,0,0,0.1369,0.1373,0.157,0.157,0.173,0.1731,0,0,0,0,0,0,0,0,0,0,0,0.1302,0.1303,0.1369,0.1374,0.1569,0.157,0.173,0.1731,0,0,0,0,0,0,0,0,0,0,0,0.1301,0.1303,0.1304,0.1374,0.1569,0.1571,0.173,0.1606,0,0,0,0,0,0,0,0,0,0,0.1428,0.1396,0.1302,0.1304,0.1375,0.1569,0.1571,0.1602,0.1614,0.1613,0,0.1645,0,0.1687,0.1739,0.1739,0,0,0,0.1382,0.1386,0.1417,0.1305,0.1377,0.1569,0.1484,0.1609,0.1623,0.1629,0.1648,0.1655,0.169,0.174,0.174,0.1872,0.1873,0,0,0.1371,0.1358,0.1408,0.1426,0.143,0.1477,0.1489,0.1619,0.1644,0.1649,0.1659,0.1692,0.1741,0.1741,0.1871,0.1872,0,0,0,0.1335,0.1351,0.1382,0.1418,0.1459,0.1483,0.1497,0.1639,0.1644,0.1661,0.1694,0.1741,0.1743,0.1871,0.1872,0.1925,0,0,0,0.1328,0.1328,0.1377,0.1374,0.1457,0.1569,0.1514,0.1635,0.1651,0.1693,0.1741,0.1744,0.187,0.1871,0.1922,0.1916,0,0,0,0.1293,0.1325,0.1343,0.1372,0.1451,0.1568,0.1583,0.164,0.167,0.174,0.1744,0.187,0.1871,0.192,0.1913,0.1971,0,0,0,0.1277,0.1304,0.1344,0.1395,0.1449,0.1544,0.1583,0.1685,0.1748,0.1742,0.187,0.1872,0.1919,0.1911,0.1968,0.1718,0,0,0,0.129,0.1306,0.1334,0.1373,0.1445,0.1518,0.1625,0.1731,0.1763,0.1821,0.1826,0.1923,0.1913,0.197,0.1799,0,0,0,0,0.1324,0.1341,0.1371,0.1433,0.1506,0.1602,0.1706,0.1763,0.1874,0.1806,0.1936,0.1927,0.1962,0.1809,0.1878,0.1878,0.1878,0.1878,0.1878,0.1319,0.1355,0.1403,0.1462,0.1535,0.1677,0.1765,0.186,0.1894,0.196,0.1981,0.2069,0.1911,0.2008,0.2008,0.2008,0.2009,0.2009,0.2009,0.1319,0.1336,0.1413,0.147,0.1573,0.1676,0.1839,0.1911,0.2043,0.2039,0.2072,0.1887,0.2014,0.2013,0.2012,0.2012,0.2011,0.2011,0.2011,0.1288,0.1298,0.1356,0.144,0.156,0.1698,0.1815,0.1959,0.2073,0.2127,0.1993,0.2108,0.2092,0.2173,0.2173,0.2174,0.2174,0.2174,0.2174,0.1225,0.1278,0.1295,0.1409,0.146,0.1596,0.182,0.1907,0.2063,0.2009,0.2157,0.2125,0.2119,0.2102,0.2178,0.2177,0.2177,0.2176,0.2176,0.1158,0.119,0.119,0.1224,0.1315,0.1406,0.166,0.1813,0.1896,0.192,0.195,0.196,0.1916,0.1916,0.1889,0.1906,0.1903,0.19,0,0.1096,0.1117,0.1068,0.1041,0.1068,0.1251,0.1343,0.1514,0.1683,0.1614,0.1863,0.1887,0.1896,0.1835,0.1831,0.1791,0,0,0,0.1041,0.1032,0.0948,0.0915,0.0913,0.1098,0.135,0.1364,0.1667,0.1711,0.1826,0.1845,0.2031,0.219,0.2146,0.214,0.2109,0,0]},{"header":{"parameterUnit":"m.s-1","parameterCategory":2,"la1":30.2992,"la2":30.254,"lo1":-89.0895,"lo2":-89.0443,"dy":0.0025,"dx":0.0025,"nx":19,"ny":19,"refTime":"2026-05-22T09:00:00:Z","depth":"4","parameterNumber":3,"parameterNumberName":"V-component_of_CURRENTS"},"data":[0,0,0,0.0194,0.0194,0.0181,0.0181,0.0116,0.0116,0,0,0,0,0,0,0,0,0,0,0,0.0195,0.0195,0.0194,0.0194,0.0181,0.0181,0.0116,0.0116,0,0,0,0,0,0,0,0,0,0,0,0.0195,0.0195,0.0195,0.0194,0.0181,0.0181,0.0117,0.0136,0,0,0,0,0,0,0,0,0,0,0.0153,0.0166,0.0195,0.0195,0.0194,0.0181,0.0181,0.0137,0.0135,0.0111,0,0.0115,0,0.0118,0.0111,0.0111,0,0,0,0.0184,0.0168,0.0166,0.0195,0.0194,0.0181,0.0184,0.0136,0.0133,0.0107,0.0114,0.0112,0.0117,0.0111,0.011,0.0094,0.0094,0,0,0.0185,0.0188,0.0168,0.0164,0.0197,0.0185,0.0184,0.0135,0.0132,0.0114,0.0111,0.0115,0.011,0.011,0.0094,0.0094,0,0,0,0.0193,0.0189,0.0189,0.0167,0.0171,0.0185,0.0184,0.0134,0.0135,0.011,0.0115,0.011,0.0109,0.0093,0.0094,0.0146,0,0,0,0.0193,0.0194,0.0189,0.019,0.0172,0.0159,0.0184,0.0138,0.0133,0.0115,0.011,0.0108,0.0093,0.0093,0.0143,0.0184,0,0,0,0.0195,0.0194,0.0195,0.0191,0.019,0.0161,0.0158,0.0137,0.0136,0.0111,0.0108,0.0093,0.0093,0.0141,0.018,0.0211,0,0,0,0.0194,0.0201,0.0196,0.0207,0.019,0.0194,0.0159,0.0151,0.0133,0.0109,0.0093,0.0094,0.0141,0.0177,0.0209,0.0235,0,0,0,0.0203,0.0202,0.0211,0.0206,0.022,0.0195,0.0207,0.0166,0.0137,0.0103,0.0103,0.0144,0.018,0.0211,0.0281,0,0,0,0,0.0214,0.0223,0.0225,0.0234,0.0231,0.0239,0.0202,0.0189,0.0168,0.0132,0.0146,0.0167,0.0185,0.0192,0.0098,0.0097,0.0097,0.0097,0.0097,0.0229,0.0236,0.0257,0.0267,0.0272,0.0262,0.0265,0.0241,0.0196,0.0201,0.021,0.0273,0.0282,0.02,0.02,0.0201,0.0201,0.0201,0.0201,0.0257,0.0276,0.0292,0.0316,0.0326,0.0338,0.033,0.0309,0.0304,0.0261,0.0275,0.0247,0.0206,0.0205,0.0204,0.0204,0.0203,0.0203,0.0203,0.027,0.0283,0.0304,0.0352,0.04,0.041,0.0467,0.0429,0.0374,0.0383,0.0382,0.0315,0.031,0.0384,0.0384,0.0385,0.0385,0.0385,0.0385,0.0277,0.03,0.0349,0.0402,0.0462,0.0532,0.0552,0.0552,0.0492,0.0462,0.0403,0.0335,0.0329,0.0321,0.0391,0.039,0.0389,0.0388,0.0388,0.0294,0.0311,0.0393,0.0454,0.0598,0.0653,0.0673,0.0648,0.0643,0.0606,0.0496,0.0489,0.0476,0.0467,0.0463,0.0577,0.0578,0.0578,0,0.0309,0.0319,0.0447,0.0569,0.0694,0.0741,0.0771,0.0753,0.0656,0.0647,0.063,0.0508,0.0501,0.0486,0.0479,0.0476,0,0,0,0.0329,0.0371,0.0466,0.0593,0.0746,0.0787,0.0786,0.0765,0.0673,0.0662,0.0594,0.059,0.0499,0.0405,0.0369,0.0362,0.0348,0,0]}]]